Location: Newark
(49.3000°N, 9.4667°E)
Time: 18:30:56
(UTC+00:00)

Transit 2A Rocket - Pass Details

Date: 24 May 2019
Orbit: 586 x 917 km, 66.7° (Epoch: 16 June)

Event Time Altitude Azimuth Distance (km) Brightness Sun altitude
Rises 20:51:57 0° 303° (WNW) 3,550 9.8 -12.6°
Reaches altitude 10° 20:55:54 10° 327° (NNW) 2,578 9.2 -13.0°
Maximum altitude 20:59:00 14° 358° (N) 2,253 8.3 -13.3°
Drops below altitude 10° 21:02:01 10° 30° (NNE) 2,498 8.0 -13.5°
Sets 21:05:45 0° 55° (NE) 3,366 8.4 -13.9°
